Simultaneous Nadir Overpasses (SNOs) Predictions

Prediction of SNOs between GOES-14 and AQUA Satellite Orbit:

Table of predicted SNOs for the next 14.0 days since TLE Epoch: 8/7/2021
Index Date Time (GOES-14) GOES-14 Lat,Lon AQUA Lat,Lon Distance(km) Time Diff (sec)
1 08/07/2021 08:41:50 -0.38,-104.16 0.09,-106.25 238.48 80
2 08/09/2021 08:27:00 -0.38,-104.16 -0.56,-103.30 97.86 80
3 08/09/2021 20:48:25 0.40,-104.36 -0.45,-108.51 471.54 80
4 08/11/2021 08:14:49 -0.37,-104.16 -1.22,-100.35 434.42 80
5 08/11/2021 20:36:13 0.40,-104.36 0.14,-105.55 134.52 80
6 08/13/2021 20:26:42 0.40,-104.37 0.80,-102.60 202.32 80
7 08/14/2021 08:47:56 -0.42,-104.19 0.36,-107.74 404.37 80
8 08/16/2021 08:35:45 -0.42,-104.18 -0.30,-104.79 68.28 80
9 08/18/2021 08:20:53 -0.42,-104.18 -0.91,-101.82 267.38 80
10 08/18/2021 20:42:19 0.44,-104.35 -0.10,-107.04 304.76 80
11 08/20/2021 20:32:47 0.45,-104.35 0.52,-104.07 31.45 80
